Flag for Nicaragua Weather past 2 weeks in León, Nicaragua

Now
79 °F

Passing clouds.


Feels Like: 82 °F
Forecast: 76 / 96 °F
Wind: No wind

Location: Managua A. C. Sandino

Current Time: Aug 1, 2014 at 1:49:58 AM

Latest Report: Aug 1, 2014 at 1:00 AM


Visibility: N/A

Pressure: 29.86 "Hg

Humidity: 84%

Dew point: 73 °F

Location of LeónLocation

Historic Weather in León — Graph

°F

León temperature yesterday

Maximum temperature yesterday: 97 °F (at 3:00 PM)
Minimum temperature yesterday: 77 °F (at 6:00 AM)
Average temperature yesterday: 86 °F

Past Weeks' High & Low Weather Summary

 TemperatureHumidityPressure
High97 °F (Jul 31, 3:00 PM)94% (Jul 28, 4:00 PM)29.95 "Hg (Jul 28, 4:00 PM)
Low75 °F (Jul 22, 5:00 AM)39% (Jul 20, 2:00 PM)29.74 "Hg (Jul 23, 3:00 PM)
Average85 °F66%29.85 "Hg
* Reported Jul 17 5:00 AM — Aug 1 1:00 AM, León, Weather by CustomWeather, © 2014

Note: Actual official high and low records may vary slightly from our data, if they occured in-between our weather recording intervals... More about our weather records

Advertising

León weather history for previous 24 hours

 ConditionsComfort  
Time TempWeatherWind HumidityBarometerVisibility
1:00 AM
Aug 1
79 °FPassing clouds.No wind84%29.86 "HgN/A
12:00 AM79 °FPassing clouds.No wind84%29.86 "HgN/A
11:00 PM
Jul 31
81 °FPassing clouds.5 mph74%29.86 "HgN/A
10:00 PM81 °FPassing clouds.5 mph74%29.86 "HgN/A
9:00 PM84 °FPassing clouds.7 mph66%29.83 "HgN/A
8:00 PM84 °FPassing clouds.7 mph66%29.83 "HgN/A
7:00 PM86 °FPassing clouds.9 mph62%29.83 "HgN/A
6:00 PM90 °FPassing clouds.9 mph55%29.80 "HgN/A
5:00 PM91 °FPassing clouds.14 mph49%29.77 "HgN/A
4:00 PM95 °FExtremely hot.N/A44%29.77 "HgN/A
3:00 PM97 °FExtremely hot.N/A42%29.77 "HgN/A
2:00 PM95 °FScattered clouds.16 mph44%29.80 "Hg6 mi
1:00 PM93 °FScattered clouds.18 mph47%29.83 "HgN/A
12:00 PM93 °FScattered clouds.18 mph47%29.83 "HgN/A
11:00 AM91 °FScattered clouds.16 mph49%29.86 "HgN/A
10:00 AM90 °FScattered clouds.14 mph55%29.86 "HgN/A
9:00 AM86 °FScattered clouds.9 mph62%29.86 "Hg6 mi
8:00 AM84 °FPassing clouds.12 mph70%29.86 "Hg6 mi
7:00 AM81 °FPassing clouds.9 mph74%29.86 "Hg6 mi
6:00 AM77 °FPassing clouds.7 mph83%29.86 "Hg6 mi
5:00 AM79 °FPassing clouds.7 mph79%29.83 "HgN/A
4:00 AM81 °FPassing clouds.9 mph74%29.83 "HgN/A
3:00 AM81 °FPassing clouds.12 mph79%29.83 "HgN/A
1:00 AM81 °FPassing clouds.7 mph79%29.89 "HgN/A
Weather by CustomWeather, © 2014

See weather overviewHow to use our weather pages